Simultaneous Nadir Overpasses (SNOs) Predictions

Prediction of SNOs between GOES-15 and METOP-B Satellite Orbit:

Table of predicted SNOs for the next 14.0 days since TLE Epoch: 10/15/2022
Index Date Time (GOES-15) GOES-15 Lat,Lon METOP-B Lat,Lon Distance(km) Time Diff (sec)
1 10/16/2022 06:15:54 0.28,-128.36 -0.30,-131.09 310.39 80
2 10/17/2022 05:52:35 0.27,-128.37 0.78,-126.09 259.25 80
3 10/18/2022 18:11:27 -0.28,-128.39 0.24,-130.65 257.54 80
4 10/19/2022 17:53:29 -0.27,-128.40 -0.89,-125.66 312.56 80
5 10/21/2022 06:12:30 0.28,-128.39 -0.12,-130.26 212.16 80
6 10/22/2022 05:49:11 0.27,-128.39 0.96,-125.26 357.06 80
7 10/23/2022 18:08:03 -0.28,-128.41 0.05,-129.82 160.95 80
8 10/24/2022 17:50:04 -0.27,-128.41 -1.09,-124.83 408.67 80
9 10/26/2022 06:09:05 0.28,-128.40 0.03,-129.42 116.19 80
10 10/27/2022 05:45:46 0.27,-128.40 1.18,-124.43 452.21 80
11 10/28/2022 18:04:38 -0.27,-128.39 -0.11,-128.98 68.01 80
